Starlink 31575

operational
NORAD ID: 59471 Int'l Des: 2024-068 Owner: SPXS Country: US Constellation: starlink
LEOCIRCULAR

Über Starlink 31575

Beschreibung wird geladen...

Live-Position

3D-Globus wird geladen...

Nächste Überflüge

Höhenverlauf

Altitude vs Time

uPlot chart will show altitude changes over time

Zweizeiliger Elementsatz

1 59471U 24068S 25304.61886266 .00004126 00000-0 15972-3 0 9993
2 59471 43.0004 39.9285 0000968 324.6393 35.4395 15.27509816 88827
Epoch: 31. Okt. 2025 • Age: 29 hours

Aktueller Status

Höhe 496.2 km
Geschwindigkeit 7.62 km/s
Subsatellitenpunkt -42.69°S, 52.38°W
Startdatum 10. Apr. 2024
Alter 1.5 years
Typ internet

Technische Details

Klassifizierung Payload
Masse 730.00 kg
Trockenmasse 700.00 kg
Gesamtmasse 730.00 kg
Länge 0.30 m
Durchmesser 4.10 m
Spannweite 29.00 m
Form Box + pan
Hersteller SPXS
Bus-Typ Starlink V2M
Phasenstatus In Orbit
Besitzer/Staat SPXS/US

Große Konstellationen

Loading constellations...